Regional Weather Roundup
Issued by NWS

Home | Current Version | Previous Version | Graphics & Text | Print | Product List | Glossary On
Versions: 1 2 3 4 5 6 7 8 9 10 11 12 13 14 15 16 17 18 19 20 21 22 23 24 25 26 27 28 29 30 31 32 33 34 35 36 37 38 39 40 41 42 43 44 45 46 47 48 49 50
000
ASUS45 KBOU 011907
RWRCO

WEATHER ROUNDUP FOR COLORADO
NATIONAL WEATHER SERVICE DENVER/BOULDER CO
100 PM MDT FRI AUG 01 2014

NOTE: "FAIR" INDICATES FEW OR NO CLOUDS BELOW 12000 FEET WITH NO
SIGNIFICANT WEATHER AND/OR OBSTRUCTIONS TO VISIBILITY.

COZ001>005-013-030-031-012000-
...NORTHWEST COLORADO...

CITY           SKY/WX    TMP DP  RH WIND       PRES   REMARKS
CRAIG          MOSUNNY   69  47  45 N7        30.27F
HAYDEN         MOSUNNY   73  43  33 CALM      30.30S
MEEKER         MOSUNNY   75  42  30 S6        30.29F
MOUNT WERNER   NOT AVBL
STEAMBOAT SPGS PTSUNNY   71  50  46 S5        30.32S
WALDEN         SUNNY     66  34  30 CALM      30.41S
$$

COZ006>008-011-012000-
...WEST CENTRAL VALLEYS...

CITY           SKY/WX    TMP DP  RH WIND       PRES   REMARKS
GRAND JUNCTION MOSUNNY   82  49  31 NW8       30.17F
MONTROSE       MOSUNNY   81  46  29 VRB3      30.25F
EAGLE          PTSUNNY   70  48  46 CALM      30.34F
RIFLE          MOSUNNY   71  52  50 NE8       30.26F
DELTA          MOSUNNY   84  46  26 CALM      30.21S
NUCLA          MOSUNNY   79  48  34 NE5       30.28F
$$

COZ017>023-064>068-012000-
...SOUTHWEST COLORADO...

CITY           SKY/WX    TMP DP  RH WIND       PRES   REMARKS
DURANGO        MOSUNNY   76  48  37 NW8       30.30F
CORTEZ         SUNNY     79  49  34 SW7       30.25F
PAGOSA SPRINGS PTSUNNY   68  49  50 CALM      30.38F THUNDER
TELLURIDE      MOSUNNY   68  46  45 W8        30.45F
WOLF CREEK PAS NOT AVBL
$$

COZ009-010-012-014-032>034-037-058>063-012000-
...CENTRAL COLORADO...

CITY           SKY/WX    TMP DP  RH WIND       PRES   REMARKS
ASPEN          LGT RAIN  60  47  61 NW8G25    30.41R
BUENA VISTA    LGT RAIN  62  48  59 NE3       30.42F
COPPER MTN     CLOUDY    45  39  81 E5        30.68F
BERTHOUD PASS  TSTM      37  36  93 S5        30.71F VSB<1/4
COTTONWOOD PAS PTSUNNY   61  46  59 CALM      30.54S
GUNNISON       MOSUNNY   64  48  55 NE6       30.41F
KREMMLING      CLOUDY    70  46  43 S14       30.39F
LEADVILLE      CLOUDY    54  45  71 N7          N/A
MONARCH PASS   PTSUNNY   46  43  87 SW7       30.76S THUNDER
SALIDA         CLOUDY    64  52  64 E6        30.47F
SUNLIGHT       CLOUDY    52  45  76 CALM      30.61F THUNDER
WILKERSON PASS RAIN      45  43  93 NE3       30.66R
$$

COZ069>075-012000-
...SAN LUIS VALLEY/SANGRE DE CRISTO MOUNTAINS...

CITY           SKY/WX    TMP DP  RH WIND       PRES   REMARKS
ALAMOSA        CLOUDY    65  50  58 SW3       30.38F
LA VETA PASS   RAIN      48  46  93 NE7       30.56S VSB<1/4
SAGUACHE       PTSUNNY   64  52  63 SE5       30.41F
$$

COZ035-036-038>040-012000-
...NORTHERN COLORADO FRONT RANGE...

CITY           SKY/WX    TMP DP  RH WIND       PRES   REMARKS
DENVER INTL AP PTSUNNY   80  42  25 SE8G20    30.28S
DMNS CITY PARK   N/A     77  46  33 E3        30.27S
AURORA         PTSUNNY   75  43  31 SE6       30.30S
FRONT RANGE AP PTSUNNY   79  43  27 SE12G22   30.29F
ERIE MUNI ARPT PTSUNNY   80  44  28 SE6       30.27S
BOULDER MUN AP PTSUNNY   77  43  29 E7        30.27S
CENTENNIAL     PTSUNNY   75  39  27 E14       30.30S
BROOMFIELD     NOT AVBL
FORT COLLINS   MOSUNNY   81  46  30 SE10G16   30.26S
LONGMONT       MOSUNNY   82  45  26 SE7       30.27F
$$

COZ041-046-047-076>085-087-088-012000-
...PIKES PEAK/PALMER DIVIDE AND SOUTHERN FOOTHILLS...

CITY           SKY/WX    TMP DP  RH WIND       PRES   REMARKS
COLO. SPRINGS  PTSUNNY   70  48  45 CALM      30.34S
A. F. ACADEMY  PTSUNNY   71  49  46 S12       30.35R
ELLICOTT       PTSUNNY   71  49  45 S9        30.33S
FALCON         PTSUNNY   69  46  43 SE8       30.39S
FORT CARSON    CLOUDY    71  55  55 VRB5      30.32S
LIMON          MOSUNNY   75  42  30 E7        30.29F
MONUMENT HILL  PTSUNNY   66  41  39 S13       30.38S
TRINIDAD       PTSUNNY   74  54  49 E5        30.29F
$$

COZ042>045-048>051-090-091-012000-
...NORTHEAST COLORADO...

CITY           SKY/WX    TMP DP  RH WIND       PRES   REMARKS
GREELEY ARPT   MOSUNNY   81  52  36 SW8       30.26S
AKRON          MOSUNNY   82  46  28 NW6       30.24F
BURLINGTON     CLOUDY    81  45  28 E5        30.22F
WRAY             N/A     87  46  23 N6        30.18F
STERLING       SUNNY     86  52  30 S3        30.20S
HOLYOKE        SUNNY     86  43  22 CALM      30.19S
FORT MORGAN    SUNNY     82  45  27 S3        30.25S
$$

COZ086-089-092>099-012000-
...SOUTHEAST COLORADO...

CITY           SKY/WX    TMP DP  RH WIND       PRES   REMARKS
PUEBLO         MOSUNNY   77  56  48 VRB3      30.24F
LA JUNTA       MOSUNNY   79  51  37 VRB3      30.22F
LAMAR          MOSUNNY   82  51  34 SE8       30.19F
SPRINGFIELD      N/A     78  46  32 VRB3G17   30.23F
$$



USA.gov is the U.S. government's official web portal to all federal, state and local government web resources and services.